Tracking 26321 objects as of 27-Nov-2022
HD Live streaming from Space Station
objects crossing your sky now

STARLINK-4491

Track STARLINK-4491 now!
10-day predictions
STARLINK-4491 is classified as:


NORAD ID: 53408
Int'l Code: 2022-097W
Perigee: 545.7 km
Apogee: 548.0 km
Inclination: 53.2 °
Period: 95.4 minutes
Semi major axis: 6917 km
RCS: Unknown
Launch date: August 10, 2022
Source: United States (US)
Launch site: AIR FORCE EASTERN TEST RANGE (AFETR)
aabbcc
Your satellite tracking list
Your tracking list is empty




NASA's NSSDC Master Catalog

Two Line Element Set (TLE):
1 53408U 22097W   22330.76798215  .00001019  00000-0  82089-4 0  9997
2 53408  53.2167  96.2843 0001637  54.8572 305.2573 15.08845974 17651
Source of the keplerian elements: AFSPC